Regional Weather Roundup
Issued by NWS

Home | Current Version | Previous Version | Text Only | Print | Product List | Glossary On
Versions: 1 2 3 4 5 6 7 8 9 10 11 12 13 14 15 16 17 18 19 20 21 22 23 24 25 26 27 28 29 30 31 32 33 34 35 36 37 38 39 40 41 42 43 44 45 46 47 48 49 50
752
ASUS43 KBIS 220910
RWRND

NORTH DAKOTA REGIONAL WEATHER ROUNDUP
NATIONAL WEATHER SERVICE BISMARCK ND
300 AM CST WED FEB 22 2017

NOTE: "FAIR" INDICATES FEW OR NO CLOUDS BELOW 12,000 FEET WITH NO
SIGNIFICANT WEATHER AND/OR OBSTRUCTIONS TO VISIBILITY.


NDZ001>003-009>011-017-221000-
NORTHWEST NORTH DAKOTA

CITY           SKY/WX    TMP DP  RH WIND       PRES   REMARKS
WILLISTON      LGT SNOW  33  32  96 N9        29.73R FOG
MINOT          CLOUDY    34  32  92 N15       29.68F FOG
MINOT AFB      LGT RAIN  32  32 100 N13       29.69R
$$

NDZ018>021-031>035-040>046-221000-
SOUTHWEST NORTH DAKOTA

CITY           SKY/WX    TMP DP  RH WIND       PRES   REMARKS
BISMARCK       FAIR      31  30  96 CALM      29.64F FOG
DICKINSON      CLOUDY    33  31  92 N3        29.63R
GARRISON         N/A     33  31  92 NE9       29.67F
HETTINGER ARPT CLOUDY    38  35  89 CALM      29.64F
$$

NDZ004>008-012>016-024-026-027-054-221000-
NORTHEAST NORTH DAKOTA

CITY           SKY/WX    TMP DP  RH WIND       PRES   REMARKS
GRAND FORKS    CLOUDY    33  29  85 NW12      29.69R FOG
GRND FRKS AFB  CLOUDY    32  32 100 N10       29.70R FOG
DEVILS LAKE    LGT RAIN  33  32  96 NE8       29.67R FOG
$$

NDZ022-023-025-028>030-036>039-047>053-221000-
SOUTHEAST NORTH DAKOTA

CITY           SKY/WX    TMP DP  RH WIND       PRES   REMARKS
FARGO          FOG       34  33  96 N12       29.65R VSB 1/4
JAMESTOWN      FAIR      34  32  92 NW7       29.64R
$$





USA.gov is the U.S. government's official web portal to all federal, state and local government web resources and services.